Wind_Speed
17 15 13 11 11 12 16 17 19 20 23 23 25 24 18 16 26 22 19 15 16 17 17 19 21 18 16 17 17 17 15 16
19 17 15 13 13 13 15 18 20 21 24 24 24 22 21 25 26 24 21 14 14 16 17 19 21 19 18 18 15 15 13 13
22 19 17 14 15 14 14 17 21 24 25 26 25 24 28 24 27 24 13 12 18 17 21 22 23 20 20 17 14 12 13 10
25 23 20 17 17 17 16 18 21 24 27 27 26 26 27 25 29 20 17 15 16 20 20 22 22 22 20 16 14 12 9 7
26 25 22 20 20 19 19 21 21 23 25 28 27 27 26 29 22 19 22 20 23 21 21 25 24 20 19 16 10 10 9 9
26 26 25 22 22 21 22 24 25 27 28 29 33 31 27 25 22 22 31 24 26 24 27 26 21 18 18 15 13 11 10 10
25 28 28 27 25 25 25 24 25 27 28 31 33 33 29 26 22 23 27 27 27 26 29 25 22 18 17 15 14 12 12 12
24 29 31 31 29 27 25 25 24 27 28 29 33 34 35 29 27 26 28 30 29 30 27 27 26 18 18 16 13 11 13 13
26 28 33 35 32 28 27 25 25 25 27 27 30 34 37 37 32 28 28 33 30 29 27 28 20 19 19 17 14 13 13 14
25 27 33 37 35 31 28 26 25 26 26 24 27 30 35 36 33 31 35 34 30 31 31 27 23 22 19 18 16 13 13 15
26 30 33 36 36 33 28 27 24 24 26 25 26 29 33 33 38 33 37 32 32 36 34 27 25 25 20 19 17 14 13 15
24 27 30 34 37 33 29 27 26 24 26 27 28 30 34 35 39 36 38 36 34 36 38 29 26 27 22 19 17 14 14 15
22 25 28 35 39 37 32 30 27 24 24 27 28 28 33 33 38 35 41 41 39 41 36 30 28 27 24 21 16 14 14 15
20 24 28 35 38 36 32 29 25 24 25 25 28 29 30 33 34 39 43 44 41 42 40 34 31 31 30 25 17 14 14 17
19 24 28 32 32 34 27 19 23 24 24 26 27 28 32 32 38 39 45 49 49 46 41 37 38 35 30 28 21 18 20 18
19 22 27 28 29 29 28 23 19 21 23 25 26 25 28 32 31 37 49 52 50 51 46 42 37 36 30 24 20 18 25 16
19 23 26 29 28 24 23 18 16 15 17 21 24 27 28 32 31 38 41 53 53 52 50 46 42 38 35 29 22 18 17 14
18 22 28 33 32 25 22 21 19 20 19 22 26 27 30 32 29 32 42 46 49 50 51 51 47 41 37 30 26 24 20 16
18 25 30 32 33 28 23 20 20 21 20 20 25 27 32 30 32 33 43 50 41 55 53 53 46 43 43 34 25 22 17 17
18 26 28 31 31 26 22 19 16 16 16 18 19 21 26 28 31 36 40 44 48 55 49 52 50 45 45 36 27 22 18 16
Wind_Direction
219 217 214 218 221 216 218 206 201 201 204 204 211 204 243 200 192 190 193 185 196 187 183 186 187 185 181 179 176 164 153 156
221 220 218 219 221 217 221 213 210 207 208 207 211 228 209 180 193 188 178 189 194 188 194 190 193 188 184 181 179 170 157 151
222 220 221 221 220 222 224 218 213 213 211 215 220 210 192 195 194 191 205 224 200 200 200 191 193 186 182 180 175 169 164 158
222 221 220 221 219 218 222 220 215 216 216 217 216 198 191 186 191 217 239 204 197 206 195 192 185 181 182 178 177 173 161 176
225 224 223 221 219 215 217 217 219 217 218 212 201 192 190 195 208 214 196 198 192 188 191 188 183 174 178 178 176 175 190 185
230 227 227 225 222 220 225 224 221 220 222 219 209 207 209 206 210 200 196 202 208 195 188 186 177 168 172 177 177 171 179 172
233 228 228 228 225 223 228 228 224 224 227 226 222 221 213 205 205 201 207 206 202 195 187 185 182 172 176 177 173 174 176 170
233 233 228 230 226 225 230 232 229 225 230 230 231 227 220 212 208 210 211 205 204 205 202 189 186 177 176 176 173 176 170 170
234 232 227 230 226 225 228 233 235 233 233 231 230 230 226 224 215 211 207 208 208 208 204 196 180 177 180 176 175 174 172 165
231 221 225 229 226 224 226 233 237 234 234 235 229 232 226 225 223 214 209 212 219 207 199 187 184 180 178 177 175 175 172 170
228 219 223 226 223 224 226 233 239 237 232 229 233 227 227 224 228 218 216 218 205 202 196 186 185 181 178 175 175 175 174 178
219 214 215 220 220 220 221 230 238 235 232 228 224 227 226 226 222 218 223 215 200 201 198 184 188 182 176 172 173 177 178 181
218 209 206 217 215 214 217 226 236 232 234 225 223 224 223 224 229 222 223 212 204 204 197 185 187 183 171 165 168 175 179 187
215 205 199 214 213 212 217 226 234 238 231 228 226 224 223 228 228 216 218 213 203 206 198 188 185 184 176 172 164 177 190 190
215 199 195 208 205 208 209 214 225 223 225 230 226 226 224 227 230 217 223 221 209 209 205 190 182 183 186 182 172 189 187 200
215 197 193 192 195 204 206 211 217 222 223 227 227 227 227 226 229 222 214 216 216 212 212 192 186 184 187 188 189 189 179 184
216 203 195 192 192 198 204 206 210 220 219 225 228 231 231 233 234 237 226 217 213 215 212 191 191 187 188 185 186 178 193 189
207 194 197 197 197 199 206 212 218 216 221 226 229 232 239 240 241 245 227 223 218 215 210 199 198 191 191 191 192 191 193 199
196 186 199 199 201 209 213 217 225 224 232 233 238 237 242 242 243 240 220 217 217 207 207 200 201 198 199 197 196 197 200 199
195 188 204 198 200 208 213 219 219 224 226 230 232 245 246 250 253 236 220 217 214 207 205 202 206 201 204 200 200 196 198 196
Height
1490 1492 1494 1495 1497 1498 1499 1502 1504 1507 1509 1511 1512 1515 1516 1518 1524 1527 1531 1530 1533 1534 1537 1542 1546 1547 1550 1551 1554 1556 1559 1562
1487 1489 1492 1494 1495 1497 1498 1502 1504 1504 1507 1509 1513 1515 1516 1519 1524 1526 1528 1529 1532 1532 1538 1538 1545 1547 1550 1552 1555 1557 1560 1562
1486 1487 1489 1492 1494 1495 1497 1500 1503 1504 1506 1509 1511 1515 1517 1520 1522 1526 1527 1529 1530 1533 1535 1539 1544 1546 1550 1553 1556 1558 1560 1563
1483 1484 1486 1489 1491 1493 1495 1498 1501 1502 1504 1505 1509 1512 1516 1520 1521 1524 1526 1526 1529 1533 1536 1540 1543 1546 1549 1553 1556 1557 1561 1564
1479 1481 1483 1485 1488 1490 1492 1495 1498 1500 1502 1503 1506 1510 1514 1517 1521 1522 1525 1526 1528 1532 1536 1540 1542 1545 1548 1553 1556 1558 1562 1565
1475 1478 1480 1481 1483 1486 1487 1490 1492 1496 1499 1501 1503 1506 1510 1514 1518 1520 1520 1522 1527 1530 1534 1538 1541 1545 1549 1553 1556 1560 1562 1565
1469 1473 1475 1476 1478 1481 1482 1486 1488 1491 1494 1498 1500 1504 1506 1510 1514 1516 1517 1520 1522 1528 1532 1536 1541 1544 1549 1552 1555 1559 1561 1564
1464 1466 1469 1470 1473 1476 1479 1481 1484 1486 1489 1493 1496 1500 1502 1506 1509 1511 1514 1517 1520 1524 1529 1534 1539 1544 1548 1552 1555 1558 1560 1563
1456 1459 1463 1464 1467 1471 1474 1477 1479 1481 1483 1487 1490 1494 1497 1500 1504 1508 1511 1514 1518 1522 1526 1532 1538 1543 1547 1550 1554 1557 1559 1561
1449 1452 1455 1458 1461 1465 1469 1471 1474 1477 1478 1481 1484 1487 1492 1496 1500 1503 1506 1510 1514 1520 1524 1530 1537 1542 1544 1548 1552 1555 1557 1560
1440 1442 1446 1450 1455 1459 1464 1466 1468 1471 1474 1476 1479 1482 1486 1491 1495 1499 1502 1506 1510 1515 1522 1528 1534 1539 1543 1546 1550 1554 1556 1559
1433 1436 1439 1444 1449 1454 1458 1462 1463 1465 1468 1470 1474 1476 1481 1485 1489 1493 1497 1502 1506 1512 1518 1525 1531 1536 1540 1544 1549 1552 1556 1558
1426 1429 1432 1435 1440 1445 1450 1453 1457 1459 1462 1464 1467 1470 1474 1479 1483 1488 1489 1495 1502 1507 1513 1520 1526 1532 1536 1541 1547 1550 1554 1557
1420 1422 1426 1429 1435 1441 1445 1448 1451 1455 1458 1459 1461 1465 1469 1472 1477 1481 1483 1489 1497 1502 1508 1515 1521 1526 1531 1537 1542 1550 1552 1555
1415 1416 1421 1424 1432 1437 1441 1444 1446 1450 1453 1454 1456 1460 1463 1467 1470 1472 1477 1480 1489 1495 1503 1510 1514 1521 1527 1531 1536 1540 1547 1550
1409 1414 1415 1419 1427 1432 1435 1438 1440 1445 1449 1451 1453 1455 1458 1461 1464 1466 1468 1475 1482 1489 1496 1505 1510 1515 1523 1528 1532 1534 1539 1546
1402 1407 1412 1415 1423 1429 1431 1436 1438 1442 1445 1446 1448 1450 1453 1455 1457 1460 1462 1468 1474 1482 1490 1498 1504 1511 1516 1522 1528 1531 1536 1539
1398 1402 1406 1409 1417 1423 1427 1429 1431 1436 1440 1441 1442 1444 1447 1449 1452 1453 1455 1461 1464 1475 1483 1491 1499 1506 1512 1518 1522 1526 1531 1535
1394 1399 1401 1405 1411 1417 1422 1424 1427 1431 1434 1436 1436 1438 1440 1440 1444 1446 1447 1452 1458 1467 1476 1485 1493 1501 1507 1512 1519 1524 1528 1532
1391 1396 1398 1401 1406 1412 1417 1419 1424 1427 1431 1431 1430 1432 1434 1435 1436 1437 1441 1449 1453 1460 1470 1478 1487 1496 1502 1508 1514 1520 1524 1527